FW9599 Weather Reports


time (UTC)temp
C
wind
direction
speed
KPH
gust
KPH
rain 1hr
cm
rain 24hr
cm
rain mn
cm
humidity
%
barometer
mb
20260506091531 13 355 8.0 12.9 0.00 0.00 0.00 76 1008.0
20260506090029 13 40 6.4 11.3 0.00 0.00 0.00 75 1007.9
20260506084524 13 60 4.8 9.7 0.00 0.00 0.00 74 1008.0
20260506083021 14 63 6.4 9.7 0.00 0.00 0.00 73 1007.9
20260506081520 15 57 4.8 9.7 0.00 0.00 0.00 72 1007.9
20260506073009 16 63 8.0 17.7 0.00 0.00 0.00 68 1007.6
20260506071507 16 71 9.7 19.3 0.00 0.00 0.00 67 1007.3
20260506061550 20 78 11.3 19.3 0.00 0.00 0.00 62 1006.4
20260506044531 21 132 3.2 11.3 0.00 0.00 0.00 57 1005.8
20260506043030 21 69 3.2 8.0 0.00 0.00 0.00 55 1005.6
20260506041529 22 63 4.8 6.4 0.00 0.00 0.00 53 1005.4
20260506040029 21 62 4.8 9.7 0.00 0.00 0.00 52 1005.2
20260506034530 21 5 3.2 12.9 0.00 0.00 0.00 54 1005.0
20260506033025 21 267 0.0 6.4 0.00 0.00 0.00 50 1005.1
20260506031525 22 266 3.2 4.8 0.00 0.00 0.00 52 1004.8
20260506030035 22 266 0.0 3.2 0.00 0.00 0.00 47 1004.9
20260506024546 23 266 0.0 4.8 0.00 0.00 0.00 41 1004.7
20260506023021 24 266 1.6 4.8 0.00 0.00 0.00 41 1004.4
20260506021521 25 267 4.8 9.7 0.00 0.00 0.00 35 1004.2
20260506020019 25 267 6.4 9.7 0.00 0.00 0.00 33 1004.1
20260506014519 26 267 4.8 9.7 0.00 0.00 0.00 29 1003.9
20260506013033 27 260 6.4 11.3 0.00 0.00 0.00 27 1003.6
20260506011519 27 246 9.7 19.3 0.00 0.00 0.00 26 1003.5
20260506010021 27 258 11.3 17.7 0.00 0.00 0.00 32 1003.4
20260506004516 27 263 8.0 12.9 0.00 0.00 0.00 32 1003.3
20260506003018 28 310 4.8 12.9 0.00 0.00 0.00 29 1003.1
20260506001520 28 304 4.8 12.9 0.00 0.00 0.00 29 1003.0
20260506000015 29 325 9.7 19.3 0.00 0.00 0.00 26 1002.7
20260505234515 30 305 16.1 25.7 0.00 0.00 0.00 26 1002.7
20260505233019 30 283 14.5 20.9 0.00 0.00 0.00 27 1002.4
20260505231514 30 277 6.4 17.7 0.00 0.00 0.00 27 1002.4
20260505230032 31 280 12.9 22.5 0.00 0.00 0.00 26 1002.4
20260505224513 31 279 14.5 30.6 0.00 0.00 0.00 25 1002.3
20260505223011 31 286 16.1 29.0 0.00 0.00 0.00 24 1002.1
20260505221511 31 269 17.7 27.4 0.00 0.00 0.00 25 1002.3
20260505220009 31 256 19.3 38.6 0.00 0.00 0.00 25 1002.4
20260505214511 32 244 12.9 29.0 0.00 0.00 0.00 25 1002.3
20260505213009 32 249 16.1 32.2 0.00 0.00 0.00 25 1002.2
20260505211508 32 259 19.3 32.2 0.00 0.00 0.00 24 1002.4
20260505210007 32 244 14.5 27.4 0.00 0.00 0.00 24 1002.5
20260505204507 32 241 16.1 27.4 0.00 0.00 0.00 24 1002.7
20260505203005 32 253 24.1 35.4 0.00 0.00 0.00 23 1002.9
20260505201507 32 267 17.7 25.7 0.00 0.00 0.00 24 1003.0
20260505200005 32 252 16.1 30.6 0.00 0.00 0.00 23 1002.9
20260505194614 32 267 17.7 27.4 0.00 0.00 0.00 24 1003.0
20260505193058 32 221 9.7 27.4 0.00 0.00 0.00 27 1003.3
20260505191559 31 242 16.1 22.5 0.00 0.00 0.00 26 1003.3
20260505190054 31 275 9.7 24.1 0.00 0.00 0.00 28 1003.3
20260505184551 31 251 8.0 16.1 0.00 0.00 0.00 31 1003.6
20260505183057 30 246 11.3 24.1 0.00 0.00 0.00 33 1003.8
20260505181545 30 275 8.0 17.7 0.00 0.00 0.00 37 1003.8
20260505180042 30 246 11.3 19.3 0.00 0.00 0.00 39 1004.2
20260505174546 29 252 14.5 24.1 0.00 0.00 0.00 40 1004.4
20260505173043 28 243 14.5 24.1 0.00 0.00 0.00 44 1004.3
20260505171534 28 249 14.5 24.1 0.00 0.00 0.00 44 1004.4
20260505170033 27 247 17.7 22.5 0.00 0.00 0.00 47 1004.3
20260505164544 27 246 14.5 25.7 0.00 0.00 0.00 51 1004.3
20260505163023 27 250 12.9 29.0 0.00 0.00 0.00 54 1004.4
20260505161521 26 235 14.5 22.5 0.00 0.00 0.00 57 1004.3
20260505153012 25 266 12.9 20.9 0.00 0.00 0.00 67 1004.4
20260505151506 23 213 12.9 22.5 0.00 0.00 0.00 71 1004.1
20260505140108 21 200 19.3 33.8 0.00 0.00 0.00 77 1003.8
20260505124547 20 175 12.9 30.6 0.00 0.00 0.00 81 1003.6
20260505123043 20 223 16.1 27.4 0.00 0.00 0.00 81 1003.3
20260505121538 20 200 12.9 27.4 0.00 0.00 0.00 81 1003.3
20260505120033 20 238 9.7 16.1 0.00 0.00 0.00 81 1003.4
20260505114538 20 235 11.3 22.5 0.00 0.00 0.00 81 1003.2
20260505113031 20 223 11.3 19.3 0.00 0.00 0.00 81 1003.0
20260505111535 20 234 4.8 14.5 0.00 0.00 0.00 80 1003.0
20260505101522 21 199 9.7 29.0 0.00 0.00 0.00 78 1002.6
20260505100021 21 210 14.5 37.0 0.00 0.00 0.00 77 1002.5
20260505094519 21 218 14.5 29.0 0.00 0.00 0.00 76 1002.4
20260505093018 21 201 16.1 37.0 0.00 0.00 0.00 76 1002.4